Осиновка

Россия / Иркутская область     56°16′37″N   101°53′51″E
темп.,
°C
ветер,
м/с
пор.,
м/с
влажн.,
%
обл.,
%
осадки,
мм/ч
давл.,
гПа
погр.,
м
15 мая, сб
сб1523:00+6ю3144976 0.0 1010277
02:00+5з51186100 0.0 1012739
05:00+4з61181100 1.1 1014996
08:00+3з6126952 1.2 10161371
11:00+6з61157100 0.3 10161734
14:00+6зюз61065100 0.4 10141290
17:00+4зюз41493100 1.6 10121201
20:00+6з61286100 2.4 1011980
16 мая, вс
вс1623:00+8зюз71488100 1.5 1010967
02:00+7сз3793100 6.0 1010415
05:00+4ссз31088100 2.1 1012650
08:00+5сз367354 2.4 1013682
11:00+7сз355398 0.0 10141139
14:00+9зсз3642100 0.0 10131312
17:00+10з3536100 0.0 10111287
20:00+7зсз2450100 0.0 1010223
17 мая, пн
пн1723:00+5ссз2563100 0.0 1010177
02:00+2ссз118583 0.0 101022
05:000сз22938 0.0 101037
08:00+4сз255680 0.0 1011465
11:00+7сз3535100 0.0 10101610
14:00+10зсз47275 0.0 10102242
17:00+11сз582685 0.0 10092696
20:00+9сз483422 0.0 1010613
18 мая, вт
вт1823:00+3зсз1148100 0.0 101210
02:00+1зсз11565 0.0 101210
05:000зсз116185 0.0 101210
08:00+5з1245100 0.0 1011219
11:00+8зюз2333100 0.0 10091386
14:00+10юз253194 0.0 10062184
17:00+10юз353246 0.0 10041566
20:00+8юз1245100 0.0 100495
19 мая, ср
ср1923:00+4с254686 0.0 1006109
02:00+2ссв115199 0.0 100811
05:00+1з115180 0.0 100710
08:00+5ссв114170 0.0 1007362
11:00+8ю2333100 0.0 10061600
14:00+9ююз2332100 0.0 10041977
17:00+10ю1131100 0.0 10021923
20:00+8св3642100 0.0 1002412